[Iaude] MPEC T174: 2023 TX6 [a=0.95,e=0.27,i=0.8,H=29.1]

mpec at marsden.cfa.harvard.edu mpec at marsden.cfa.harvard.edu
Thu Oct 12 01:51:47 EDT 2023


M.P.E.C. 2023-T174                             Issued 2023 October 12, 05:50 UT

     The Minor Planet Electronic Circulars contain information on unusual
         minor planets, routine data on comets and natural satellites,
         and occasional editorial announcements.  They are published
    on behalf of Division F of the International Astronomical Union by the
          Minor Planet Center, Smithsonian Astrophysical Observatory,
                          Cambridge, MA 02138, U.S.A.
			  
             Prepared using the Tamkin Foundation Computer Network

                              MPC at CFA.HARVARD.EDU
            URL https://www.minorplanetcenter.net/    ISSN 1523-6714

                                    2023 TX6                                    


Observations:
     K23T06X  C2023 10 10.44380401 49 47.477-02 57 00.74         18.65GVET174F52
     K23T06X  C2023 10 10.46858701 47 43.995-02 50 15.47         18.60GVET174F52
     K23T06X* C2023 10 11.43008201 04 45.163-00 09 27.31         19.89wXET174F51
     K23T06X  C2023 10 11.44303301 04 20.076-00 08 08.26               VET174F51
     K23T06X  C2023 10 11.45550701 03 56.157-00 06 52.98         19.97wXET174F51
     K23T06X  C2023 10 11.46818301 03 32.188-00 05 37.33         19.44GVET174F51
     K23T06X KC2023 10 11.56608101 00 39.731+00 03 41.42         19.92GVET174F51
     K23T06X KB2023 10 11.83733400 55 44.00 +00 22 11.2          20.0 GVET174I93
     K23T06X KB2023 10 11.84148900 55 38.50 +00 22 29.5          19.8 GVET174I93
     K23T06X KB2023 10 11.84563800 55 33.03 +00 22 49.0          20.1 GVET174I93
     K23T06X KC2023 10 11.86079600 55 07.96 +00 24 00.6          20.4 GVET174598
     K23T06X KC2023 10 11.86326800 55 04.64 +00 24 11.4          20.0 GVET174598
     K23T06X KC2023 10 11.86489500 55 02.42 +00 24 19.3          20.9 GVET174598
     K23T06X KC2023 10 11.86713600 54 59.42 +00 24 28.7          20.4 GVET174598
     K23T06X KC2023 10 12.14344300 50 04.69 +00 43 49.9          20.7 VuET174H21
     K23T06X KC2023 10 12.14628400 50 01.42 +00 44 00.5          20.2 VuET174H21
     K23T06X KC2023 10 12.14915400 49 58.11 +00 44 11.3          20.2 VuET174H21
     K23T06X KC2023 10 12.15202500 49 54.85 +00 44 21.7          20.6 VuET174H21

Observer details:
598 Loiano.  Observer A. Carbognani.  1.52-m f/4.7 Reflector + CCD.
F51 Pan-STARRS 1, Haleakala.  Observers J. Bulger, T. Lowe, P. Minguez, A.
    Schultz, I. Smith.  Measurers K. Chambers, T. de Boer, J. Bulger, J.
    Fairlamb, H. Gao, M. Huber, C.-C. Lin, T. Lowe, E. Magnier, P. Minguez, Y.
    Ramanjooloo, A. Schultz, I. Smith, R. Wainscoat, R. Weryk.  1.8-m Ritchey-
    Chretien + CCD.
F52 Pan-STARRS 2, Haleakala.  Observers J. Bulger, T. Lowe, P. Minguez, A.
    Schultz, I. Smith.  Measurers K. Chambers, T. de Boer, J. Fairlamb, H.
    Gao, M. Huber, C.-C. Lin, E. Magnier, Y. Ramanjooloo, R. Wainscoat, R.
    Weryk.  1.8-m Ritchey-Chretien + CCD.
H21 Astronomical Research Observatory, Westfield.  Observer R. Holmes.
    Measurers T. Linder, R. Holmes, L. Horn.  0.81-m f/4.0 astrograph + CCD.
I93 St Pardon de Conques.  Observer F. Losse.  0.40-m f/3.7 reflector + CMO.

Orbital elements:
2023 TX6                                                 Earth MOID = 0.0019 AU
Epoch 2023 Sept. 13.0 TT = JDT 2460200.5                Veres                   
M  57.79876              (2000.0)            P               Q                  
n   1.06069886     Peri.  236.29579     -0.17608649     +0.98435978             
a   0.9522288      Node    23.56410     -0.89860086     -0.15849301             
e   0.2680981      Incl.    0.77674     -0.40188313     -0.07691417             
P   0.93           H   29.18          G   0.15           U   5                  
Residuals in seconds of arc
231010 F52  0.0   0.0     231011 F51  0.3-  0.2-    231011 598  0.2-  0.4+
231010 F52  0.0   0.0     231011 I93  0.6-  0.2+    231011 598  0.2+  0.2-
231011 F51  0.1-  0.3-    231011 I93  0.4-  0.5-    231012 H21  0.1+  0.2-
231011 F51  0.3+  0.3-    231011 I93  0.1+  0.1+    231012 H21  0.0   0.1-
231011 F51  0.0   0.3-    231011 598  0.1-  0.1+    231012 H21  0.3-  0.1+
231011 F51  0.0   0.4-    231011 598  0.2+  0.2-    231012 H21  0.2+  0.1-

Ephemeris:
2023 TX6                 a,e,i = 0.95, 0.27, 1                   q = 0.6969
Date    TT    R. A. (2000) Decl.     Delta      r    Elong.  Phase     V
2023 09 12    12 02 09.1 -03 23 01   0.1409  0.8703    13.5   164.4
...
2023 09 27    11 55 53.9 -04 09 57   0.05945 0.9433     5.0   174.7
...
2023 10 05    11 32 19.6 -05 26 48   0.02047 0.9807    17.2   162.5    32.6
...
2023 10 11    01 19 02.5 -00 57 08   0.0091331.0076   171.4     8.6    19.6
2023 10 12    00 52 16.0 +00 41 11   0.01375 1.0119   172.7     7.2    20.4
2023 10 13    00 39 02.9 +01 29 48   0.01847 1.0162   170.2     9.7    21.2
...
2023 10 19    00 16 27.4 +02 57 34   0.04747 1.0410   159.9    19.2    23.6
...
2023 10 27    00 12 12.8 +03 34 13   0.08755 1.0716   151.2    26.6    25.2
...
2023 11 11    00 17 32.4 +04 34 49   0.1682  1.1206   137.8    36.4    27.0

M. P. C. Staff               (C) Copyright 2023 MPC           M.P.E.C. 2023-T174





More information about the Iaude mailing list